MPEC 2003-Y63 : 2003 XB22

The following Minor Planet Electronic Circular may be linked-to from your own Web pages, but must not otherwise be redistributed electronically.


Read MPEC 2003-Y62 Read MPEC 2003-Y64


M.P.E.C. 2003-Y63                                Issued 2003 Dec. 24, 22:24 UT

     The Minor Planet Electronic Circulars contain information on unusual
         minor planets and routine data on comets.  They are published
   on behalf of Commission 20 of the International Astronomical Union by the
          Minor Planet Center, Smithsonian Astrophysical Observatory,
                          Cambridge, MA 02138, U.S.A.

         Supported in part by the Steven and Michele Kirsch Foundation
             Prepared using the Tamkin Foundation Computer Network

                              MPC@CFA.HARVARD.EDU
          URL http://cfa-www.harvard.edu/iau/mpc.html  ISSN 1523-6714

                                   2003 XB22

Observations:
     K03X22B*2C2003 12 15.69173 08 11 18.441+07 37 42.60         20.0 R EY063413
     K03X22B 2C2003 12 15.70275 08 11 18.094+07 37 56.22         20.1 R EY063413
     K03X22B 2C2003 12 15.71376 08 11 17.773+07 38 10.10         20.2 R EY063413
     K03X22B 1C2003 12 24.71695 08 04 33.119+11 33 02.95         19.6 R EY063413
     K03X22B 1C2003 12 24.71926 08 04 32.951+11 33 07.49         19.5 R EY063413
     K03X22B 1C2003 12 24.72158 08 04 32.799+11 33 11.81         19.5 R EY063413
     K03X22B 1C2003 12 24.72389 08 04 32.630+11 33 16.28         19.5 R EY063413
     K03X22B 1C2003 12 24.72620 08 04 32.466+11 33 20.65         19.6 R EY063413
     K03X22B 1C2003 12 24.72851 08 04 32.312+11 33 24.88         19.4 R EY063413
     K03X22B 1C2003 12 24.74992 08 04 30.808+11 34 05.75         19.5 R EY063413
     K03X22B  C2003 12 24.89395 08 04 22.38 +11 38 21.7          18.3 R EY063246
     K03X22B  C2003 12 24.89476 08 04 22.32 +11 38 24.1                 EY063246
     K03X22B  C2003 12 24.89716 08 04 22.08 +11 38 30.3                 EY063246
     K03X22B  C2003 12 24.90002 08 04 21.87 +11 38 34.1                 EY063246
     K03X22B  C2003 12 24.90243 08 04 21.68 +11 38 39.9                 EY063246
     K03X22B  C2003 12 24.90362 08 04 21.70 +11 38 41.6                 EY063246

Observer details:
246 Klet Observatory-KLENOT.  Observers J. Ticha, M. Tichy.  1.06-m KLENOT
    Telescope + CCD.
413 Siding Spring.  Observers G. J. Garradd, R. H. McNaught.  1.0-m f/8
    reflector + CCD.

Orbital elements:
2003 XB22                                                            PHA 0.019D
Epoch 2003 Dec. 7.0 TT = JDT 2452980.5                  MPC
M 263.20991              (2000.0)            P               Q
n   0.62011289     Peri.  119.98791     -0.55996660     +0.69491109
a   1.3619324      Node   108.78410     -0.82328810     -0.52777487
e   0.3789283      Incl.   28.45903     +0.09291993     -0.48841812
P   1.59           H   19.2           G   0.15
From 16 observations 2003 Dec. 15-24.

Ephemeris:
2003 XB22                a,e,i = 1.36, 0.38, 28                  q = 0.8459
Date    TT    R. A. (2000) Decl.     Delta      r     Elong.  Phase     V
2003 12 17    08 10.68   +08 05.6    0.656    1.546   140.0    24.1    20.4
2003 12 27    08 01.86   +12 49.4    0.552    1.498   153.8    16.8    19.7
2004 01 06    07 44.39   +19 56.7    0.469    1.448   170.4     6.5    18.9
2004 01 16    07 16.40   +29 20.4    0.416    1.395   169.1     7.7    18.6
2004 01 26    06 37.93   +39 29.2    0.398    1.339   148.2    22.8    18.9
2004 02 05    05 53.63   +48 10.1    0.409    1.281   128.6    37.0    19.3
2004 02 15    05 11.13   +54 26.5    0.439    1.222   112.1    48.5    19.7
2004 02 25    04 36.20   +58 51.0    0.475    1.162    98.9    57.3    20.0
2004 03 06    04 09.60   +62 17.5    0.508    1.102    88.4    64.2    20.2
2004 03 16    03 48.19   +65 19.3    0.533    1.043    79.9    69.9    20.4
2004 03 26    03 27.31   +68 08.3    0.546    0.988    73.1    75.0    20.5
2004 04 05    03 00.8    +70 37.5    0.544    0.938    67.5    80.1    20.5
2004 04 15    02 22.6    +72 17.5    0.527    0.896    62.9    85.5    20.6
2004 04 25    01 33.4    +72 17.8    0.496    0.866    59.4    91.1    20.6
2004 05 05    00 47.18   +69 43.9    0.454    0.849    56.7    96.8    20.6
2004 05 15    00 20.24   +64 08.0    0.404    0.847    55.1   101.9    20.6
2004 05 25    00 14.92   +55 20.4    0.353    0.861    55.0   105.3    20.5
2004 06 04    00 25.11   +43 00.9    0.308    0.889    57.6   105.3    20.3
2004 06 14    00 44.37   +27 07.0    0.277    0.928    64.0   100.5    19.9
2004 06 24    01 07.49   +08 52.9    0.267    0.976    73.8    90.9    19.5
2004 07 04    01 30.82   -09 00.6    0.280    1.031    85.0    79.3    19.3
2004 07 14    01 51.76   -24 17.6    0.311    1.089    95.0    68.4    19.3
2004 07 24    02 08.01   -36 27.0    0.356    1.149   102.9    59.5    19.4
2004 08 03    02 17.54   -45 53.9    0.409    1.209   108.6    52.7    19.6
2004 08 13    02 18.35   -53 12.0    0.468    1.269   112.6    47.5    19.9
2004 08 23    02 08.41   -58 39.3    0.531    1.327   115.2    43.6    20.1
2004 09 02    01 47.20   -62 17.6    0.598    1.383   116.4    40.8    20.4
2004 09 12    01 17.41   -64 04.2    0.670    1.437   116.5    38.8    20.7
2004 09 22    00 45.55   -64 00.3    0.746    1.488   115.7    37.5    20.9
2004 10 02    00 18.76   -62 22.7    0.827    1.536   114.0    36.5    21.2
2004 10 12    00 00.46   -59 37.9    0.913    1.581   111.5    36.0    21.5
2004 10 22    23 50.62   -56 09.6    1.004    1.623   108.5    35.6    21.7
2004 11 01    23 47.63   -52 16.9    1.100    1.662   105.0    35.2    22.0
2004 11 11    23 49.68   -48 11.9    1.200    1.697   101.2    34.9    22.2

Timothy B. Spahr             (C) Copyright 2003 MPC           M.P.E.C. 2003-Y63

Read MPEC 2003-Y62 Read MPEC 2003-Y64


Our Web policy. Index to the CBAT/MPC/ICQ pages.

MPC